Weather History for NFFN - February, 2013

Change the Weather History Date:

Monday, February 25, 2013

  Actual Average Record
Temperature  
Mean Temperature 80 °F -  
Max Temperature 86 °F 86 °F 91 °F (2005)
Min Temperature 74 °F 73 °F 69 °F (1998)
Cooling Degree Days 15    
Growing Degree Days 30 (Base 50)    
Moisture  
Dew Point 75 °F    
Average Humidity 86    
Maximum Humidity 100    
Minimum Humidity 65    
Precipitation  
Precipitation 0.12 in 0.42 in - ()
Sea Level Pressure  
Sea Level Pressure 29.70 in    
Wind  
Wind Speed 4 mph ()    
Max Wind Speed 12 mph    
Max Gust Speed -    
Visibility 6.8 miles    
Events Rain    
Averages and records for this station are not official NWS values.
T = Trace of Precipitation, MM = Missing Value Source: Averaged Metar Reports

Daily Weather History Graph

Daily Weather History Graph

Search for Another Location

Airport or City:

Trip Planner

Search our weather history database for the weather conditions in past years. The results will help you decide how hot, cold, wet, or windy it might be!

Date:

Astronomy

Feb. 25, 2013 Rise Set
Actual Time 6:07 AM FJT 6:38 PM FJT
Civil Twilight 5:45 AM FJT 7:00 PM FJT
Nautical Twilight 5:19 AM FJT 7:26 PM FJT
Astronomical Twilight 4:53 AM FJT 7:52 PM FJT
Moon 5:58 PM FJT (2/25) 5:11 AM FJT (2/25)
Length of Visible Light 13h 14m
Length of Day
12h 30m
Waxing Gibbous, 99% of the Moon is Illuminated
Feb 25
Waxing Gibbous
Feb 26
Full
Mar 5
Last Quarter
Mar 12
New
Mar 20
First Quarter

Hourly Weather History & Observations

Time (FJT) Temp. Heat Index Dew Point Humidity Pressure Visibility Wind Dir Wind Speed Gust Speed Precip Events Conditions
12:00 AM 75 °F - 75 °F 100% 29.76 in 12 mi SSE 8.1 mph - - Rain Light Rain
12:00 AM 75.2 °F - 75.2 °F 100% 29.74 in 6.2 mi SSE 8.1 mph - N/A Rain Light Rain
1:00 AM 75.2 °F - 75.2 °F 100% 29.74 in 6.2 mi SE 3.5 mph - N/A   Mostly Cloudy
2:00 AM 75.2 °F - 75.2 °F 100% 29.71 in 6.2 mi NNE 3.5 mph - N/A   Scattered Clouds
3:00 AM 75 °F - 75 °F 99% 29.70 in 12 mi Calm Calm - -   Partly Cloudy
3:00 AM 75.2 °F - 75.2 °F 100% 29.68 in 6.2 mi Calm Calm - N/A   Mostly Cloudy
4:00 AM 75.2 °F - 75.2 °F 100% 29.68 in 6.2 mi ESE 2.3 mph - N/A   Scattered Clouds
5:00 AM 73.4 °F - 73.4 °F 100% 29.68 in 6.2 mi SE 6.9 mph - N/A   Scattered Clouds
6:00 AM 74 °F - 74 °F 99% 29.71 in 12 mi SE 4.6 mph - -   Partly Cloudy
6:00 AM 75.2 °F - 73.4 °F 94% 29.68 in 6.2 mi SE 4.6 mph - N/A   Mostly Cloudy
7:00 AM 75.2 °F - 75.2 °F 100% 29.71 in 6.2 mi ESE 5.8 mph - N/A   Scattered Clouds
8:00 AM 78.8 °F - 77.0 °F 94% 29.71 in 6.2 mi SSE 4.6 mph - N/A   Scattered Clouds
9:00 AM 81 °F - 76 °F 82% 29.75 in 31 mi ESE 3.5 mph - -   Partly Cloudy
9:00 AM 80.6 °F 87.1 °F 77.0 °F 89% 29.74 in 6.2 mi ESE 3.5 mph - N/A   Scattered Clouds
10:00 AM 82.4 °F 94.0 °F 80.6 °F 94% 29.74 in 6.2 mi ESE 3.5 mph - N/A   Scattered Clouds
11:00 AM 84.2 °F 94.1 °F 77.0 °F 79% 29.71 in 6.2 mi SSW 5.8 mph - N/A   Scattered Clouds
12:00 PM 86 °F - 79 °F 74% 29.72 in 31 mi West 8.1 mph - -   Partly Cloudy
12:00 PM 86.0 °F 99.3 °F 78.8 °F 79% 29.71 in 6.2 mi West 8.1 mph - N/A   Scattered Clouds
1:00 PM 86.0 °F 96.9 °F 77.0 °F 74% 29.68 in 6.2 mi NNW 11.5 mph - N/A Rain Light Rain
2:00 PM 84.2 °F 94.1 °F 77.0 °F 79% 29.65 in 6.2 mi NW 9.2 mph - N/A   Scattered Clouds
3:00 PM 85 °F - 75 °F 65% 29.66 in 31 mi West 4.6 mph - -   Partly Cloudy
3:00 PM 86.0 °F 95.1 °F 75.2 °F 70% 29.65 in 6.2 mi West 4.6 mph - N/A   Scattered Clouds
4:00 PM 86.0 °F 95.1 °F 75.2 °F 70% 29.65 in 6.2 mi SSW 6.9 mph - N/A   Scattered Clouds
5:00 PM 84.2 °F 90.9 °F 73.4 °F 70% 29.65 in 6.2 mi SSW 6.9 mph - N/A   Scattered Clouds
6:00 PM 84 °F - 74 °F 65% 29.68 in 31 mi SE 3.5 mph - -   Partly Cloudy
6:00 PM 84.2 °F 90.9 °F 73.4 °F 70% 29.68 in 6.2 mi SE 3.5 mph - N/A   Partly Cloudy
7:00 PM 80.6 °F 85.4 °F 73.4 °F 79% 29.68 in 6.2 mi SE 3.5 mph - N/A   Scattered Clouds
8:00 PM 78.8 °F - 73.4 °F 83% 29.71 in 6.2 mi SSE 3.5 mph - N/A   Partly Cloudy
9:00 PM 77 °F - 73 °F 85% 29.71 in 31 mi SE 3.5 mph - -   Partly Cloudy
9:00 PM 77.0 °F - 73.4 °F 89% 29.71 in 6.2 mi SE 3.5 mph - N/A   Partly Cloudy
10:00 PM 77.0 °F - 73.4 °F 89% 29.74 in 6.2 mi Calm Calm - N/A   Mostly Cloudy
11:00 PM 77.0 °F - 73.4 °F 89% 29.74 in 6.2 mi Calm Calm - N/A   Scattered Clouds